Time,TemperatureF,DewpointF,PressureIn,WindDirection,WindDirectionDegrees,WindSpeedMPH,WindSpeedGustMPH,Humidity,HourlyPrecipIn,Conditions,Clouds,dailyrainin,SoftwareType,DateUTC
2013-02-07 00:02:00,36.0,18.0,-100.00,NW,315,0.0,0.0,48,-99.99,,,-99.99,,2013-02-07 05:02:00,
2013-02-07 00:12:00,36.0,18.0,-100.00,NW,315,0.0,0.0,48,-99.99,,,-99.99,,2013-02-07 05:12:00,
2013-02-07 00:21:00,36.0,18.0,-100.00,NNW,330,0.0,0.0,47,-99.99,,,-99.99,,2013-02-07 05:21:00,
2013-02-07 00:32:00,36.0,18.0,-100.00,NNW,330,0.0,0.0,47,-99.99,,,-99.99,,2013-02-07 05:32:00,
2013-02-07 00:42:00,36.0,18.0,-100.00,NW,315,0.0,0.0,47,-99.99,,,-99.99,,2013-02-07 05:42:00,
2013-02-07 00:52:00,36.0,18.0,-100.00,NW,315,0.0,0.0,47,-99.99,,,-99.99,,2013-02-07 05:52:00,
2013-02-07 01:02:00,36.0,17.0,-100.00,NNW,330,0.0,0.0,46,-99.99,,,-99.99,,2013-02-07 06:02:00,
2013-02-07 01:11:00,36.0,17.0,-100.00,NNW,330,0.0,0.0,46,-99.99,,,-99.99,,2013-02-07 06:11:00,
2013-02-07 01:22:00,36.0,17.0,-100.00,NNW,330,0.0,0.0,46,-99.99,,,-99.99,,2013-02-07 06:22:00,
2013-02-07 01:32:00,36.0,17.0,-100.00,NNW,330,0.0,0.0,46,-99.99,,,-99.99,,2013-02-07 06:32:00,
2013-02-07 01:43:00,36.0,17.0,-100.00,NW,305,0.0,0.0,46,-99.99,,,-99.99,,2013-02-07 06:43:00,
2013-02-07 01:53:00,36.0,17.0,-100.00,NW,305,0.0,0.0,46,-99.99,,,-99.99,,2013-02-07 06:53:00,
2013-02-07 02:02:00,34.0,19.0,-100.00,East,85,0.0,0.0,55,-99.99,,,-99.99,,2013-02-07 07:02:00,
2013-02-07 02:11:00,34.0,19.0,-100.00,East,85,0.0,0.0,55,-99.99,,,-99.99,,2013-02-07 07:11:00,
2013-02-07 02:22:00,33.0,19.0,-100.00,ESE,120,0.0,0.0,56,-99.99,,,-99.99,,2013-02-07 07:22:00,
2013-02-07 02:32:00,33.0,19.0,-100.00,ESE,120,0.0,0.0,56,-99.99,,,-99.99,,2013-02-07 07:32:00,
2013-02-07 02:42:00,32.0,19.0,-100.00,SSE,155,0.0,0.0,59,-99.99,,,-99.99,,2013-02-07 07:42:00,
2013-02-07 02:52:00,32.0,19.0,-100.00,SSE,155,0.0,0.0,59,-99.99,,,-99.99,,2013-02-07 07:52:00,
2013-02-07 03:02:00,32.0,20.0,-100.00,SSE,160,0.0,0.0,61,-99.99,,,-99.99,,2013-02-07 08:02:00,
2013-02-07 03:11:00,32.0,20.0,-100.00,SSE,160,0.0,0.0,61,-99.99,,,-99.99,,2013-02-07 08:11:00,
2013-02-07 03:22:00,32.0,21.0,-100.00,SE,125,0.0,0.0,64,-99.99,,,-99.99,,2013-02-07 08:22:00,
2013-02-07 03:32:00,32.0,21.0,-100.00,SE,125,0.0,0.0,64,-99.99,,,-99.99,,2013-02-07 08:32:00,
2013-02-07 03:42:00,31.0,20.0,-100.00,SE,140,0.0,0.0,64,-99.99,,,-99.99,,2013-02-07 08:42:00,
2013-02-07 03:52:00,31.0,20.0,-100.00,SE,140,0.0,0.0,64,-99.99,,,-99.99,,2013-02-07 08:52:00,
2013-02-07 04:02:00,32.0,21.0,-100.00,SE,135,0.0,0.0,65,-99.99,,,-99.99,,2013-02-07 09:02:00,
2013-02-07 04:11:00,32.0,21.0,-100.00,SE,135,0.0,0.0,65,-99.99,,,-99.99,,2013-02-07 09:11:00,
2013-02-07 04:22:00,31.0,22.0,-100.00,SE,140,0.0,0.0,69,-99.99,,,-99.99,,2013-02-07 09:22:00,
2013-02-07 04:32:00,31.0,22.0,-100.00,SE,140,0.0,0.0,69,-99.99,,,-99.99,,2013-02-07 09:32:00,
2013-02-07 04:42:00,31.0,22.0,-100.00,SE,130,0.0,0.0,69,-99.99,,,-99.99,,2013-02-07 09:42:00,
2013-02-07 04:52:00,31.0,22.0,-100.00,SE,130,0.0,0.0,69,-99.99,,,-99.99,,2013-02-07 09:52:00,
2013-02-07 05:02:00,31.0,22.0,-100.00,SE,140,0.0,0.0,69,-99.99,,,-99.99,,2013-02-07 10:02:00,
2013-02-07 05:11:00,31.0,22.0,-100.00,SE,140,0.0,0.0,69,-99.99,,,-99.99,,2013-02-07 10:11:00,
2013-02-07 05:22:00,31.0,21.0,-100.00,SSE,150,0.0,0.0,65,-99.99,,,-99.99,,2013-02-07 10:22:00,
2013-02-07 05:32:00,31.0,21.0,-100.00,SSE,150,0.0,0.0,65,-99.99,,,-99.99,,2013-02-07 10:32:00,
2013-02-07 05:42:00,31.0,21.0,-100.00,SE,130,0.0,0.0,66,-99.99,,,-99.99,,2013-02-07 10:42:00,
2013-02-07 05:52:00,31.0,21.0,-100.00,SE,130,0.0,0.0,66,-99.99,,,-99.99,,2013-02-07 10:52:00,
2013-02-07 06:02:00,32.0,21.0,-100.00,SSE,165,0.0,0.0,64,-99.99,,,-99.99,,2013-02-07 11:02:00,
2013-02-07 06:11:00,32.0,21.0,-100.00,SSE,165,0.0,0.0,64,-99.99,,,-99.99,,2013-02-07 11:11:00,
2013-02-07 06:23:00,31.0,22.0,-100.00,SSE,155,0.0,0.0,68,-99.99,,,-99.99,,2013-02-07 11:23:00,
2013-02-07 06:32:00,31.0,22.0,-100.00,SSE,155,0.0,0.0,68,-99.99,,,-99.99,,2013-02-07 11:32:00,
2013-02-07 06:44:00,31.0,22.0,-100.00,SSE,155,0.0,0.0,67,-99.99,,,-99.99,,2013-02-07 11:44:00,
2013-02-07 06:53:00,31.0,22.0,-100.00,SSE,155,0.0,0.0,67,-99.99,,,-99.99,,2013-02-07 11:53:00,
2013-02-07 07:02:00,31.0,22.0,-100.00,SSE,155,0.0,0.0,68,-99.99,,,-99.99,,2013-02-07 12:02:00,
2013-02-07 07:12:00,31.0,22.0,-100.00,SSE,155,0.0,0.0,68,-99.99,,,-99.99,,2013-02-07 12:12:00,
2013-02-07 07:22:00,31.0,21.0,-100.00,SSE,160,0.0,0.0,66,-99.99,,,-99.99,,2013-02-07 12:22:00,
2013-02-07 07:33:00,31.0,21.0,-100.00,SSE,160,0.0,0.0,66,-99.99,,,-99.99,,2013-02-07 12:33:00,
2013-02-07 07:42:00,32.0,22.0,-100.00,SE,145,0.0,0.0,66,-99.99,,,-99.99,,2013-02-07 12:42:00,
2013-02-07 07:53:00,32.0,22.0,-100.00,SE,145,0.0,0.0,66,-99.99,,,-99.99,,2013-02-07 12:53:00,
2013-02-07 08:03:00,32.0,22.0,-100.00,ESE,120,0.0,0.0,67,-99.99,,,-99.99,,2013-02-07 13:03:00,
2013-02-07 08:12:00,32.0,22.0,-100.00,ESE,120,0.0,0.0,67,-99.99,,,-99.99,,2013-02-07 13:12:00,
2013-02-07 08:22:00,33.0,22.0,-100.00,East,80,0.0,0.0,65,-99.99,,,-99.99,,2013-02-07 13:22:00,
2013-02-07 08:32:00,33.0,22.0,-100.00,East,80,0.0,0.0,65,-99.99,,,-99.99,,2013-02-07 13:32:00,
2013-02-07 08:42:00,34.0,18.0,-100.00,NW,310,0.0,0.0,52,-99.99,,,-99.99,,2013-02-07 13:42:00,
2013-02-07 08:52:00,34.0,18.0,-100.00,NW,310,0.0,0.0,52,-99.99,,,-99.99,,2013-02-07 13:52:00,
2013-02-07 09:02:00,35.0,17.0,-100.00,NNW,335,0.0,0.0,49,-99.99,,,-99.99,,2013-02-07 14:02:00,
2013-02-07 09:12:00,35.0,17.0,-100.00,NNW,335,0.0,0.0,49,-99.99,,,-99.99,,2013-02-07 14:12:00,
2013-02-07 09:22:00,35.0,18.0,-100.00,NNW,340,0.0,0.0,50,-99.99,,,-99.99,,2013-02-07 14:22:00,
2013-02-07 09:32:00,35.0,18.0,-100.00,NNW,340,0.0,0.0,50,-99.99,,,-99.99,,2013-02-07 14:32:00,
2013-02-07 09:42:00,35.0,19.0,-100.00,NW,325,0.0,0.0,53,-99.99,,,-99.99,,2013-02-07 14:42:00,
2013-02-07 09:52:00,35.0,19.0,-100.00,NW,325,0.0,0.0,53,-99.99,,,-99.99,,2013-02-07 14:52:00,
2013-02-07 10:02:00,35.0,20.0,-100.00,NW,325,0.0,0.0,53,-99.99,,,-99.99,,2013-02-07 15:02:00,
2013-02-07 10:11:00,35.0,20.0,-100.00,NW,325,0.0,0.0,53,-99.99,,,-99.99,,2013-02-07 15:11:00,
2013-02-07 10:22:00,35.0,20.0,-100.00,NW,325,0.0,0.0,54,-99.99,,,-99.99,,2013-02-07 15:22:00,
2013-02-07 10:32:00,35.0,20.0,-100.00,NW,325,0.0,0.0,54,-99.99,,,-99.99,,2013-02-07 15:32:00,
2013-02-07 10:42:00,35.0,20.0,-100.00,NW,325,0.0,0.0,53,-99.99,,,-99.99,,2013-02-07 15:42:00,
2013-02-07 10:52:00,35.0,20.0,-100.00,NW,325,0.0,0.0,53,-99.99,,,-99.99,,2013-02-07 15:52:00,
2013-02-07 11:01:00,36.0,20.0,-100.00,NNW,330,0.0,0.0,52,-99.99,,,-99.99,,2013-02-07 16:01:00,
2013-02-07 11:11:00,36.0,20.0,-100.00,NNW,330,0.0,0.0,52,-99.99,,,-99.99,,2013-02-07 16:11:00,
2013-02-07 11:22:00,36.0,20.0,-100.00,NNW,335,0.0,0.0,51,-99.99,,,-99.99,,2013-02-07 16:22:00,
2013-02-07 11:32:00,36.0,20.0,-100.00,NNW,335,0.0,0.0,51,-99.99,,,-99.99,,2013-02-07 16:32:00,
2013-02-07 11:42:00,36.0,20.0,-100.00,NW,320,0.0,0.0,52,-99.99,,,-99.99,,2013-02-07 16:42:00,
2013-02-07 11:52:00,36.0,20.0,-100.00,NW,320,0.0,0.0,52,-99.99,,,-99.99,,2013-02-07 16:52:00,
2013-02-07 12:01:00,37.0,22.0,-100.00,WNW,295,0.0,0.0,54,-99.99,,,-99.99,,2013-02-07 17:01:00,
2013-02-07 12:11:00,37.0,22.0,-100.00,WNW,295,0.0,0.0,54,-99.99,,,-99.99,,2013-02-07 17:11:00,
2013-02-07 12:22:00,37.0,22.0,-100.00,NW,325,0.0,0.0,55,-99.99,,,-99.99,,2013-02-07 17:22:00,
2013-02-07 12:32:00,37.0,22.0,-100.00,NW,325,0.0,0.0,55,-99.99,,,-99.99,,2013-02-07 17:32:00,
2013-02-07 12:43:00,38.0,21.0,-100.00,NW,320,0.0,0.0,50,-99.99,,,-99.99,,2013-02-07 17:43:00,
2013-02-07 12:52:00,38.0,21.0,-100.00,NW,320,0.0,0.0,50,-99.99,,,-99.99,,2013-02-07 17:52:00,
2013-02-07 13:02:00,38.0,22.0,-100.00,NNW,335,0.0,0.0,51,-99.99,,,-99.99,,2013-02-07 18:02:00,
2013-02-07 13:12:00,38.0,22.0,-100.00,NNW,335,0.0,0.0,51,-99.99,,,-99.99,,2013-02-07 18:12:00,
2013-02-07 13:23:00,39.0,22.0,-100.00,NNW,335,0.0,0.0,51,-99.99,,,-99.99,,2013-02-07 18:23:00,
2013-02-07 13:32:00,39.0,22.0,-100.00,NNW,335,0.0,0.0,51,-99.99,,,-99.99,,2013-02-07 18:32:00,
2013-02-07 13:42:00,39.0,22.0,-100.00,NNW,330,0.0,0.0,51,-99.99,,,-99.99,,2013-02-07 18:42:00,
2013-02-07 13:52:00,39.0,22.0,-100.00,NNW,330,0.0,0.0,51,-99.99,,,-99.99,,2013-02-07 18:52:00,
2013-02-07 14:02:00,40.0,22.0,-100.00,NNW,345,0.0,0.0,50,-99.99,,,-99.99,,2013-02-07 19:02:00,
2013-02-07 14:11:00,40.0,22.0,-100.00,NNW,345,0.0,0.0,50,-99.99,,,-99.99,,2013-02-07 19:11:00,
2013-02-07 14:22:00,39.0,22.0,-100.00,NW,320,0.0,0.0,50,-99.99,,,-99.99,,2013-02-07 19:22:00,
2013-02-07 14:32:00,39.0,22.0,-100.00,NW,320,0.0,0.0,50,-99.99,,,-99.99,,2013-02-07 19:32:00,
2013-02-07 14:42:00,39.0,23.0,-100.00,NW,320,0.0,0.0,51,-99.99,,,-99.99,,2013-02-07 19:42:00,
2013-02-07 14:52:00,39.0,23.0,-100.00,NW,320,0.0,0.0,51,-99.99,,,-99.99,,2013-02-07 19:52:00,
2013-02-07 15:01:00,39.0,22.0,-100.00,NW,320,0.0,0.0,51,-99.99,,,-99.99,,2013-02-07 20:01:00,
2013-02-07 15:11:00,39.0,22.0,-100.00,NW,320,0.0,0.0,51,-99.99,,,-99.99,,2013-02-07 20:11:00,
2013-02-07 15:42:00,40.0,22.0,-100.00,NW,320,0.0,0.0,50,-99.99,,,-99.99,,2013-02-07 20:42:00,
2013-02-07 15:52:00,40.0,22.0,-100.00,NW,320,0.0,0.0,50,-99.99,,,-99.99,,2013-02-07 20:52:00,
2013-02-07 16:02:00,40.0,23.0,-100.00,NW,320,0.0,0.0,50,-99.99,,,-99.99,,2013-02-07 21:02:00,
2013-02-07 16:11:00,40.0,23.0,-100.00,NW,320,0.0,0.0,50,-99.99,,,-99.99,,2013-02-07 21:11:00,
2013-02-07 16:22:00,40.0,23.0,-100.00,NW,315,0.0,0.0,50,-99.99,,,-99.99,,2013-02-07 21:22:00,
2013-02-07 16:32:00,40.0,23.0,-100.00,NW,315,0.0,0.0,50,-99.99,,,-99.99,,2013-02-07 21:32:00,
2013-02-07 16:42:00,40.0,22.0,-100.00,NNW,330,0.0,0.0,48,-99.99,,,-99.99,,2013-02-07 21:42:00,
2013-02-07 16:52:00,40.0,22.0,-100.00,NNW,330,0.0,0.0,48,-99.99,,,-99.99,,2013-02-07 21:52:00,
2013-02-07 17:02:00,40.0,22.0,-100.00,NW,325,0.0,0.0,49,-99.99,,,-99.99,,2013-02-07 22:02:00,
2013-02-07 17:11:00,40.0,22.0,-100.00,NW,325,0.0,0.0,49,-99.99,,,-99.99,,2013-02-07 22:11:00,
2013-02-07 17:22:00,40.0,23.0,-100.00,NW,320,0.0,0.0,49,-99.99,,,-99.99,,2013-02-07 22:22:00,
2013-02-07 17:32:00,40.0,23.0,-100.00,NW,320,0.0,0.0,49,-99.99,,,-99.99,,2013-02-07 22:32:00,
2013-02-07 17:52:00,40.0,23.0,-100.00,NW,315,0.0,0.0,49,-99.99,,,-99.99,,2013-02-07 22:52:00,
2013-02-07 18:02:00,40.0,22.0,-100.00,NW,305,0.0,0.0,48,-99.99,,,-99.99,,2013-02-07 23:02:00,
2013-02-07 18:11:00,40.0,22.0,-100.00,NW,305,0.0,0.0,48,-99.99,,,-99.99,,2013-02-07 23:11:00,
2013-02-07 18:22:00,40.0,23.0,-100.00,WNW,300,0.0,0.0,49,-99.99,,,-99.99,,2013-02-07 23:22:00,
2013-02-07 18:32:00,40.0,23.0,-100.00,WNW,300,0.0,0.0,49,-99.99,,,-99.99,,2013-02-07 23:32:00,
2013-02-07 18:42:00,40.0,23.0,-100.00,NNW,330,0.0,0.0,49,-99.99,,,-99.99,,2013-02-07 23:42:00,
2013-02-07 18:52:00,40.0,23.0,-100.00,NNW,330,0.0,0.0,49,-99.99,,,-99.99,,2013-02-07 23:52:00,
2013-02-07 19:02:00,40.0,23.0,-100.00,NW,315,0.0,0.0,50,-99.99,,,-99.99,,2013-02-08 00:02:00,
2013-02-07 19:11:00,40.0,23.0,-100.00,NW,315,0.0,0.0,50,-99.99,,,-99.99,,2013-02-08 00:11:00,
2013-02-07 19:22:00,40.0,23.0,-100.00,NW,320,0.0,0.0,50,-99.99,,,-99.99,,2013-02-08 00:22:00,
2013-02-07 19:32:00,40.0,23.0,-100.00,NW,320,0.0,0.0,50,-99.99,,,-99.99,,2013-02-08 00:32:00,
2013-02-07 19:42:00,40.0,23.0,-100.00,NW,315,0.0,0.0,51,-99.99,,,-99.99,,2013-02-08 00:42:00,
2013-02-07 19:52:00,40.0,23.0,-100.00,NW,315,0.0,0.0,51,-99.99,,,-99.99,,2013-02-08 00:52:00,
2013-02-07 20:02:00,40.0,24.0,-100.00,NW,320,0.0,0.0,52,-99.99,,,-99.99,,2013-02-08 01:02:00,
2013-02-07 20:11:00,40.0,24.0,-100.00,NW,320,0.0,0.0,52,-99.99,,,-99.99,,2013-02-08 01:11:00,
2013-02-07 20:21:00,40.0,24.0,-100.00,NW,315,0.0,0.0,53,-99.99,,,-99.99,,2013-02-08 01:21:00,
2013-02-07 20:32:00,40.0,24.0,-100.00,NW,315,0.0,0.0,53,-99.99,,,-99.99,,2013-02-08 01:32:00,
2013-02-07 20:42:00,39.0,25.0,-100.00,NW,310,0.0,0.0,55,-99.99,,,-99.99,,2013-02-08 01:42:00,
2013-02-07 20:52:00,39.0,25.0,-100.00,NW,310,0.0,0.0,55,-99.99,,,-99.99,,2013-02-08 01:52:00,
2013-02-07 21:01:00,39.0,26.0,-100.00,NW,320,0.0,0.0,57,-99.99,,,-99.99,,2013-02-08 02:01:00,
2013-02-07 21:11:00,39.0,26.0,-100.00,NW,320,0.0,0.0,57,-99.99,,,-99.99,,2013-02-08 02:11:00,
2013-02-07 21:22:00,39.0,26.0,-100.00,NW,305,0.0,0.0,58,-99.99,,,-99.99,,2013-02-08 02:22:00,
2013-02-07 21:32:00,39.0,26.0,-100.00,NW,305,0.0,0.0,58,-99.99,,,-99.99,,2013-02-08 02:32:00,
2013-02-07 21:42:00,39.0,26.0,-100.00,NW,315,0.0,0.0,61,-99.99,,,-99.99,,2013-02-08 02:42:00,
2013-02-07 21:52:00,39.0,26.0,-100.00,NW,315,0.0,0.0,61,-99.99,,,-99.99,,2013-02-08 02:52:00,
2013-02-07 22:02:00,38.0,27.0,-100.00,NW,325,0.0,0.0,63,-99.99,,,-99.99,,2013-02-08 03:02:00,
2013-02-07 22:12:00,38.0,27.0,-100.00,NW,325,0.0,0.0,63,-99.99,,,-99.99,,2013-02-08 03:12:00,
2013-02-07 22:22:00,38.0,27.0,-100.00,NW,315,0.0,0.0,64,-99.99,,,-99.99,,2013-02-08 03:22:00,
2013-02-07 22:32:00,38.0,27.0,-100.00,NW,315,0.0,0.0,64,-99.99,,,-99.99,,2013-02-08 03:32:00,
2013-02-07 22:42:00,38.0,27.0,-100.00,NNW,330,0.0,0.0,64,-99.99,,,-99.99,,2013-02-08 03:42:00,
2013-02-07 22:52:00,38.0,27.0,-100.00,NNW,330,0.0,0.0,64,-99.99,,,-99.99,,2013-02-08 03:52:00,
2013-02-07 23:02:00,38.0,28.0,-100.00,NW,315,0.0,0.0,66,-99.99,,,-99.99,,2013-02-08 04:02:00,
2013-02-07 23:11:00,38.0,28.0,-100.00,NW,315,0.0,0.0,66,-99.99,,,-99.99,,2013-02-08 04:11:00,
2013-02-07 23:21:00,38.0,27.0,-100.00,NNW,340,0.0,0.0,66,-99.99,,,-99.99,,2013-02-08 04:21:00,
2013-02-07 23:32:00,38.0,27.0,-100.00,NNW,340,0.0,0.0,66,-99.99,,,-99.99,,2013-02-08 04:32:00,
2013-02-07 23:42:00,37.0,27.0,-100.00,NNW,330,0.0,0.0,66,-99.99,,,-99.99,,2013-02-08 04:42:00,
2013-02-07 23:52:00,37.0,27.0,-100.00,NNW,330,0.0,0.0,66,-99.99,,,-99.99,,2013-02-08 04:52:00,